EST,Max TemperatureF,Mean TemperatureF,Min TemperatureF,Max Dew PointF,MeanDew PointF,Min DewpointF,Max Humidity, Mean Humidity, Min Humidity, Max Sea Level PressureIn, Mean Sea Level PressureIn, Min Sea Level PressureIn, Max VisibilityMiles, Mean VisibilityMiles, Min VisibilityMiles, Max Wind SpeedMPH, Mean Wind SpeedMPH, Max Gust SpeedMPH,PrecipitationIn, CloudCover, Events, WindDirDegrees
2011-11-1,57,44,32,43,34,30,100,64,38,30.33,30.29,30.26,10,8,0,7,3,,0.00,2,Fog,181
2011-11-2,62,50,37,37,33,30,87,50,30,30.33,30.25,30.16,10,10,7,8,5,9,0.00,0,,169
2011-11-3,60,51,42,37,34,32,66,49,36,30.07,30.00,29.93,10,10,10,9,4,,0.00,0,,216
2011-11-4,50,46,41,39,26,18,81,51,28,30.25,30.16,30.05,10,10,10,16,11,22,0.00,1,,7
2011-11-5,55,44,32,27,19,16,75,40,21,30.39,30.33,30.29,10,10,10,7,4,,0.00,0,,120
2011-11-6,60,48,35,32,26,18,54,40,29,30.39,30.32,30.27,10,10,10,8,5,,0.00,0,,170
2011-11-7,64,52,39,41,38,30,70,52,40,30.34,30.30,30.26,10,10,10,7,4,,0.00,4,,193
2011-11-8,68,57,46,41,39,37,76,46,33,30.25,30.17,30.13,10,10,10,10,5,,0.00,0,,185
2011-11-9,69,58,46,54,42,28,88,56,40,30.26,29.93,29.81,10,10,7,15,10,25,0.00,4,Rain,171
2011-11-10,44,40,35,32,30,27,87,66,49,30.00,29.92,29.86,10,10,10,14,8,18,0.00,7,Rain,242
2011-11-11,41,37,33,28,24,23,81,58,49,29.99,29.95,29.90,10,10,10,21,12,33,0.00,7,,252
2011-11-12,59,50,42,30,29,27,53,38,31,30.03,29.99,29.97,10,10,10,15,11,24,0.00,0,,213
2011-11-13,62,56,51,41,33,21,48,39,30,29.93,29.84,29.74,10,10,10,21,15,32,0.00,4,,198
2011-11-14,68,62,55,55,53,52,94,76,60,29.83,29.72,29.64,10,8,3,21,8,39,0.00,6,Rain,202
2011-11-15,53,52,50,52,48,46,94,88,82,29.92,29.89,29.82,10,10,10,9,7,16,0.00,7,,205
2011-11-16,51,46,39,50,44,28,94,86,65,29.97,29.87,29.82,10,6,3,7,4,,0.00,6,Rain,294
2011-11-17,39,36,30,27,19,12,75,54,38,30.16,30.06,30.00,10,10,10,18,9,34,0.00,4,,271
2011-11-18,42,33,24,18,15,14,69,46,31,30.39,30.32,30.22,10,10,10,9,8,,0.00,1,,204
2011-11-19,55,47,39,36,28,18,51,43,36,30.23,30.17,30.10,10,10,10,21,10,29,0.00,1,,201
2011-11-20,59,54,46,52,48,43,88,76,67,30.20,30.14,30.07,10,10,7,16,11,23,0.00,7,Rain,247
2011-11-21,41,40,39,39,38,36,93,92,87,30.29,30.26,30.23,10,6,3,6,2,,0.00,7,Rain,15
2011-11-22,50,44,41,48,43,39,100,94,93,30.18,29.98,29.76,10,5,0,10,6,16,0.00,8,Fog-Rain,101
2011-11-23,44,42,37,37,35,32,93,79,66,30.18,30.02,29.78,10,10,5,20,13,30,0.00,4,Rain,319
2011-11-24,,,,,,,,,,,,,,,,,,,,,,
2011-11-25,,,,,,,,,,,,,,,,,,,,,,
2011-11-26,59,52,46,41,36,27,62,51,43,30.20,30.15,30.10,10,10,10,13,8,17,0.00,1,,186
2011-11-27,55,53,51,54,48,39,94,82,62,29.99,29.93,29.89,10,10,7,15,9,23,0.00,8,Rain,174
2011-11-28,55,50,46,52,48,45,94,93,88,30.04,29.97,29.89,10,7,1,8,3,,0.00,6,Rain,352
2011-11-29,59,48,37,55,44,32,88,83,70,29.68,29.62,29.53,10,9,3,20,11,28,0.00,7,Rain,165
2011-11-30,35,34,32,34,29,25,100,83,70,30.09,29.87,29.65,10,9,2,15,10,23,0.00,7,Rain,269